Home   Weather   Tacoma   Past weeks

Flag for USA Past Weather in Tacoma, Washington, USA — Yesterday and Last 2 Weeks

Now
60 °F

Passing clouds.


Feels Like: 60 °F
Forecast: 53 / 66 °F
Wind: 3 mph from Southwest

Location: Tacoma Narrows Airport

Current Time: Sep 27, 2016 at 1:59:33 AM

Latest Report: Sep 27, 2016 at 12:53 AM


Visibility: 10 mi

Pressure: 30.10 "Hg

Humidity: 93%

Dew Point: 58 °F

Location of TacomaLocation

Past Weather in Tacoma — Graph

°F

Tacoma Temperature Yesterday

Maximum temperature yesterday: 76 °F (at 3:53 PM)
Minimum temperature yesterday: 53 °F (at 5:53 AM)
Average temperature yesterday: 63 °F

High & Low Weather Summary for the Past Weeks

 TemperatureHumidityPressure
High76 °F (Sep 14, 3:53 PM)100% (Sep 16, 7:53 AM)30.41 "Hg (Sep 16, 7:53 AM)
Low47 °F (Sep 21, 7:00 AM)26% (Sep 13, 2:53 PM)29.89 "Hg (Sep 17, 9:53 AM)
Average59 °F73%30.10 "Hg
* Reported Sep 11 11:53 PM — Sep 26 11:53 PM, Tacoma, Weather by CustomWeather, © 2016

Note: Actual official high and low records may vary slightly from our data, if they occured in-between our weather recording intervals... More about our weather records

Advertising

Tacoma Weather History for the Previous 24 Hours

Scroll right to see more
 ConditionsComfort  
Time TempWeatherWind HumidityBarometerVisibility
11:53 PM
Mon, Sep 26
61 °FClear.5 mph90%30.09 "Hg10 mi
10:53 PM62 °FOvercast.6 mph78%30.09 "Hg10 mi
9:53 PM64 °FClear.No wind70%30.07 "Hg10 mi
8:53 PM65 °FClear.3 mph68%30.05 "Hg10 mi
7:53 PM67 °FClear.5 mph63%30.03 "Hg10 mi
6:53 PM69 °FSunny.6 mph61%30.00 "Hg10 mi
5:53 PM74 °FSunny.6 mph50%30.00 "Hg10 mi
4:53 PM75 °FSunny.5 mph48%30.01 "Hg10 mi
3:53 PM76 °FSunny.6 mph47%30.01 "Hg10 mi
2:53 PM73 °FSunny.5 mph51%30.02 "Hg10 mi
1:53 PM70 °FSunny.No wind57%30.04 "Hg10 mi
12:53 PM68 °FSunny.No wind61%30.06 "Hg10 mi
11:53 AM65 °FSunny.6 mph68%30.08 "Hg10 mi
10:53 AM62 °FSunny.5 mph73%30.10 "Hg10 mi
9:53 AM60 °FSunny.6 mph78%30.11 "Hg10 mi
8:53 AM58 °FSunny.6 mph81%30.11 "Hg10 mi
7:53 AM54 °FSunny.5 mph93%30.12 "Hg10 mi
6:53 AM54 °FClear.5 mph93%30.13 "Hg10 mi
5:53 AM53 °FClear.3 mph93%30.14 "Hg10 mi
4:53 AM55 °FClear.5 mph87%30.15 "Hg10 mi
3:53 AM56 °FClear.6 mph84%30.16 "Hg10 mi
2:53 AM56 °FClear.3 mph84%30.18 "Hg10 mi
1:53 AM57 °FClear.6 mph81%30.21 "Hg10 mi
Weather by CustomWeather, © 2016

See weather overviewHow to use our weather pages